Wind_Speed
8 7 6 6 6 6 6 6 6 5 4 4 4 4 4 4 4 5 5 6 7 8 8 9 10 11 12 12 11 10 8 6 5 4 4 5 6 7 7 7 7 8 9
7 7 6 6 6 6 6 6 6 5 4 4 3 3 2 2 3 3 4 5 5 6 6 7 8 8 9 10 10 9 8 6 5 4 4 4 5 6 6 6 6 7 8
7 7 6 6 6 5 5 5 5 5 5 5 5 4 4 4 4 5 5 6 7 7 7 7 7 7 7 7 8 8 7 6 5 4 3 3 3 4 5 5 5 6 7
7 7 6 5 5 5 5 5 5 6 6 6 7 7 7 7 8 9 9 9 9 9 9 9 9 8 6 5 5 5 5 5 4 3 3 3 3 4 4 5 5 5 7
8 8 6 5 5 6 6 7 7 7 8 8 8 9 10 10 11 12 12 12 12 12 12 12 11 10 9 7 6 4 3 2 2 2 2 2 3 3 4 5 5 5 6
10 10 8 7 7 7 8 9 9 9 10 10 11 11 12 13 13 14 14 14 14 14 15 15 15 13 12 11 9 7 5 3 2 1 2 3 3 4 4 4 5 6 6
12 11 10 10 10 10 10 10 11 11 11 12 12 13 13 14 15 15 15 15 15 16 17 17 17 17 15 14 13 12 10 7 5 4 3 4 4 5 5 5 5 6 7
13 12 12 12 12 12 12 12 12 13 13 13 14 14 14 14 15 16 17 17 17 18 18 19 19 19 19 18 16 15 14 12 10 9 7 6 6 6 7 6 6 6 7
15 14 14 14 14 14 14 14 14 14 15 15 15 15 15 15 16 17 18 19 19 19 20 20 20 21 21 20 19 18 18 16 15 13 12 10 9 9 8 8 8 7 7
18 18 17 18 18 17 17 16 17 17 18 17 17 17 17 17 18 19 20 21 21 22 22 22 23 23 23 22 22 21 21 20 20 18 16 15 13 12 11 11 10 9 9
20 21 21 21 21 20 20 20 21 21 21 21 21 20 20 20 20 21 22 23 23 24 23 24 24 24 24 24 23 22 22 22 23 22 21 19 18 16 15 14 13 12 11
23 24 24 24 23 23 24 25 25 25 25 26 25 23 22 21 22 23 23 25 25 26 26 26 26 26 25 25 25 23 22 24 24 25 24 23 22 21 19 18 17 15 14
23 25 25 24 24 24 25 26 27 27 28 28 27 25 24 23 23 25 26 27 27 28 28 28 27 27 28 27 27 25 23 23 24 25 26 27 26 25 24 22 21 19 18
21 23 23 24 24 23 24 25 26 26 26 27 25 24 25 25 25 27 27 28 29 29 29 28 28 29 29 29 28 27 25 24 23 25 27 29 29 28 27 26 24 23 21
19 20 21 23 23 24 25 25 25 26 26 25 26 27 27 27 27 29 30 30 30 30 30 29 29 30 30 30 30 28 27 26 25 25 26 30 32 32 31 29 28 26 25
18 20 21 22 23 24 25 26 26 27 27 28 28 29 29 30 30 30 31 31 31 31 31 31 30 30 30 30 29 29 29 28 27 26 26 29 32 34 34 32 31 30 29
19 20 21 23 24 25 26 27 28 28 28 28 28 29 29 30 30 30 31 32 32 32 32 32 32 31 31 30 29 29 29 29 28 28 28 28 31 34 35 35 34 33 32
19 20 21 22 23 24 25 26 27 27 28 28 29 30 30 31 31 31 32 32 32 32 32 32 32 31 31 30 30 30 29 29 30 30 29 29 30 33 35 36 35 34 34
19 19 20 22 23 25 26 27 27 28 29 29 30 30 31 31 31 32 32 32 33 33 33 33 32 32 32 31 30 30 30 30 30 31 30 30 30 32 35 37 36 35 35
19 20 21 23 25 26 26 27 28 28 29 29 30 30 31 31 31 32 32 33 33 33 34 34 34 33 33 33 32 31 31 31 30 31 31 30 30 32 34 37 38 37 37
19 21 22 24 25 26 27 28 29 29 30 30 30 30 30 31 31 32 32 33 34 34 35 35 35 35 35 34 34 33 33 33 32 31 31 30 30 32 34 36 37 38 38
20 21 23 24 26 27 28 29 30 30 31 31 30 30 30 30 30 31 31 32 33 33 34 34 34 35 35 35 35 34 33 33 33 33 32 31 31 32 33 35 37 37 39
19 21 23 25 26 27 28 29 30 31 31 31 31 30 30 29 29 30 30 31 32 32 33 33 34 34 34 35 35 34 34 34 34 33 32 31 31 33 34 35 36 37 40
19 21 23 24 26 27 28 29 29 30 30 31 31 30 30 30 29 29 29 30 30 31 32 32 33 33 33 34 34 34 34 34 34 34 34 33 32 33 34 35 36 36 39
19 20 21 22 24 25 25 26 27 28 28 28 28 29 29 29 29 29 29 30 30 31 32 32 32 32 32 33 34 34 34 34 34 34 34 35 33 34 34 35 36 37 39
17 18 20 21 22 23 23 24 25 26 26 26 27 28 28 29 29 30 31 32 32 33 33 34 34 34 34 34 34 34 34 34 34 34 34 35 35 34 35 36 37 38 39
Wind_Direction
356 350 346 349 354 359 3 6 11 19 27 37 54 62 61 54 45 38 31 23 19 18 19 20 23 27 31 33 36 38 40 47 55 64 81 96 101 98 99 104 108 108 110
349 343 342 350 354 358 2 0 360 3 4 6 12 20 24 16 2 354 350 347 346 349 354 359 5 12 19 25 30 34 38 44 54 63 77 94 108 111 108 106 108 111 114
336 330 331 340 349 355 359 357 353 348 341 338 336 335 331 326 320 317 317 316 316 317 322 327 333 344 358 10 18 26 34 41 52 65 79 93 115 130 129 122 117 117 120
318 314 320 331 340 344 345 343 335 326 320 317 316 315 312 311 308 306 304 303 303 303 303 305 309 312 320 334 351 6 22 34 50 65 92 113 128 142 146 143 136 130 129
308 302 302 309 313 318 320 318 315 312 307 305 305 304 303 303 302 302 301 300 299 298 296 294 294 294 295 297 300 312 336 3 34 71 104 142 153 155 156 159 155 147 140
308 299 295 293 294 297 300 299 298 299 298 298 299 298 298 299 299 299 299 298 297 296 294 291 287 286 283 281 278 273 273 269 275 198 166 166 175 175 167 165 167 162 156
307 299 293 292 289 288 288 290 292 293 295 296 297 299 299 298 297 299 299 298 297 295 294 291 287 283 280 275 271 265 260 250 242 232 213 196 190 188 181 176 176 173 170
300 295 290 290 288 284 283 286 289 291 294 295 295 297 299 299 296 296 298 298 297 297 296 292 289 285 281 275 268 262 256 249 241 233 225 214 204 200 195 187 185 185 181
289 285 282 283 284 282 284 286 288 289 291 292 292 293 294 295 294 295 296 296 297 297 296 293 291 287 284 278 270 262 256 250 243 237 230 222 215 209 206 200 196 195 192
280 278 277 277 278 278 279 282 283 284 286 286 284 285 287 289 290 291 294 295 294 293 293 292 290 289 286 282 277 267 258 252 246 240 234 226 222 218 214 209 204 201 201
275 274 273 273 273 273 272 275 278 279 280 279 277 278 280 283 285 288 290 292 292 291 290 289 289 288 287 285 282 274 265 256 247 242 237 230 226 223 220 216 211 205 205
275 273 271 271 270 270 270 271 273 274 275 274 272 273 275 278 282 285 288 289 290 289 287 286 286 286 287 284 282 278 272 260 251 245 239 233 229 226 224 221 218 213 209
277 274 275 275 275 277 274 273 276 278 277 276 276 271 272 276 281 285 285 286 288 288 286 284 283 283 283 283 282 279 277 270 258 249 241 235 231 228 226 225 223 219 215
286 284 284 284 284 284 284 282 282 282 282 283 286 284 281 282 284 286 285 286 287 287 286 283 282 281 281 281 280 279 277 277 269 257 246 238 233 230 228 227 226 224 221
290 289 290 289 288 289 289 289 287 284 284 285 286 287 288 287 286 285 286 286 286 285 284 282 282 281 280 280 279 277 275 274 271 266 255 242 235 232 230 229 229 228 226
287 288 290 288 287 288 289 290 291 290 289 288 288 287 286 286 285 285 286 285 284 283 282 281 281 280 279 278 277 275 273 271 269 265 261 249 239 233 231 230 229 230 229
285 286 288 289 289 290 291 291 292 291 291 292 291 290 288 286 285 284 284 283 282 280 280 279 279 278 276 275 273 271 271 271 268 264 261 256 245 237 233 231 230 230 230
289 291 292 293 294 295 296 296 296 296 295 295 294 292 290 288 287 285 284 283 281 279 278 278 277 276 275 273 271 269 269 268 267 263 262 258 249 241 235 233 232 231 231
295 297 298 300 300 301 301 301 300 300 299 297 296 294 293 291 289 287 285 283 282 281 280 279 277 275 273 271 268 267 266 266 265 263 261 257 249 242 236 232 231 232 232
300 303 305 307 307 307 307 306 306 305 303 301 299 298 296 294 292 290 288 286 284 283 281 280 278 276 273 271 268 266 265 264 262 259 259 257 250 244 237 233 232 232 232
308 311 313 313 313 313 312 311 310 309 307 305 303 301 299 296 294 292 290 288 287 285 283 280 278 276 274 271 268 266 264 262 260 257 256 255 249 244 238 234 232 232 231
313 316 317 317 316 316 314 313 311 310 308 306 304 302 300 298 296 294 292 290 287 285 283 281 279 277 275 272 269 266 264 262 259 257 253 251 247 242 239 236 232 231 230
316 317 317 316 315 314 312 310 309 308 307 306 304 302 301 299 297 295 292 291 289 287 285 283 280 278 275 272 270 266 263 260 258 257 252 248 245 241 238 235 232 231 230
317 316 315 313 312 310 308 307 307 306 305 305 304 303 302 300 298 297 295 293 291 289 287 285 282 279 276 273 270 267 263 260 257 255 253 248 243 240 236 233 232 231 230
314 313 312 311 310 310 309 309 310 309 308 308 306 305 304 303 302 300 299 297 295 292 289 286 283 280 276 273 270 267 263 260 257 254 251 248 244 240 237 233 233 232 230
312 312 313 315 316 318 318 318 318 318 317 315 313 312 310 308 307 305 302 300 297 294 291 287 283 279 276 272 269 266 263 259 256 253 249 244 243 241 237 233 232 231 229
Height
5908 5907 5907 5906 5906 5904 5904 5903 5903 5904 5904 5905 5904 5904 5904 5904 5904 5904 5904 5904 5904 5904 5904 5904 5904 5903 5902 5902 5901 5900 5899 5899 5899 5898 5898 5898 5898 5899 5899 5899 5899 5899 5900
5908 5907 5907 5906 5905 5904 5904 5903 5903 5903 5903 5904 5904 5904 5904 5904 5904 5904 5904 5904 5904 5904 5904 5903 5903 5903 5902 5902 5901 5900 5900 5899 5899 5899 5899 5898 5899 5899 5900 5901 5901 5901 5901
5908 5907 5907 5906 5905 5904 5904 5903 5903 5903 5903 5903 5903 5903 5904 5904 5904 5904 5903 5903 5903 5903 5903 5902 5902 5902 5902 5901 5901 5900 5900 5899 5899 5899 5899 5899 5899 5900 5900 5901 5902 5902 5902
5908 5907 5906 5905 5904 5904 5903 5903 5903 5902 5902 5902 5902 5902 5902 5902 5902 5902 5902 5902 5901 5901 5901 5901 5901 5901 5900 5900 5900 5900 5899 5899 5899 5899 5899 5899 5899 5900 5901 5902 5902 5903 5903
5908 5907 5905 5904 5903 5903 5902 5902 5902 5902 5901 5901 5901 5901 5901 5900 5900 5900 5900 5899 5899 5899 5899 5899 5899 5899 5899 5898 5898 5898 5898 5898 5898 5899 5899 5899 5899 5900 5901 5901 5902 5903 5904
5907 5906 5904 5903 5902 5902 5901 5901 5900 5900 5900 5900 5899 5899 5899 5898 5898 5897 5897 5897 5896 5896 5896 5896 5896 5896 5896 5896 5896 5896 5896 5897 5897 5898 5898 5898 5899 5899 5900 5901 5902 5903 5904
5906 5904 5903 5902 5901 5900 5900 5899 5898 5898 5898 5897 5897 5897 5896 5896 5895 5895 5894 5894 5893 5893 5893 5893 5892 5893 5893 5893 5893 5894 5894 5895 5895 5896 5896 5897 5898 5898 5899 5900 5901 5902 5904
5903 5902 5901 5900 5899 5898 5898 5897 5897 5896 5896 5895 5895 5894 5893 5893 5892 5892 5891 5890 5890 5890 5889 5889 5889 5889 5889 5889 5890 5890 5891 5892 5892 5893 5894 5895 5896 5897 5898 5899 5900 5901 5903
5900 5900 5899 5898 5897 5896 5895 5895 5894 5893 5893 5892 5892 5891 5890 5890 5889 5889 5888 5887 5887 5886 5886 5885 5884 5884 5884 5885 5885 5886 5887 5888 5889 5890 5891 5893 5894 5895 5896 5897 5898 5900 5901
5897 5896 5895 5894 5894 5893 5892 5891 5891 5890 5889 5888 5888 5887 5887 5886 5886 5885 5884 5884 5883 5882 5882 5881 5880 5880 5880 5880 5881 5881 5883 5884 5885 5886 5888 5889 5891 5892 5893 5895 5896 5898 5900
5894 5893 5891 5890 5889 5888 5888 5887 5887 5886 5885 5884 5883 5883 5883 5882 5882 5881 5880 5879 5879 5878 5877 5877 5876 5876 5875 5875 5875 5876 5877 5878 5880 5881 5883 5885 5887 5888 5890 5892 5894 5895 5897
5889 5888 5887 5886 5885 5884 5883 5883 5881 5880 5879 5878 5877 5877 5877 5877 5877 5876 5875 5874 5874 5873 5873 5872 5871 5871 5870 5870 5870 5871 5872 5873 5874 5876 5878 5880 5882 5884 5886 5888 5890 5892 5894
5884 5883 5882 5881 5880 5878 5878 5877 5876 5875 5873 5872 5871 5870 5871 5871 5871 5870 5870 5869 5868 5868 5867 5867 5866 5866 5865 5865 5865 5865 5866 5867 5868 5870 5872 5874 5877 5880 5882 5884 5886 5889 5891
5879 5878 5877 5876 5874 5872 5872 5871 5870 5869 5867 5866 5866 5865 5865 5865 5864 5864 5864 5863 5862 5861 5861 5861 5860 5860 5859 5859 5859 5860 5860 5861 5862 5863 5865 5868 5871 5874 5877 5879 5882 5884 5887
5874 5873 5872 5871 5869 5868 5867 5866 5865 5864 5862 5862 5862 5861 5860 5859 5859 5858 5857 5856 5855 5855 5854 5854 5853 5853 5853 5853 5853 5853 5854 5855 5856 5857 5859 5861 5865 5868 5871 5874 5877 5879 5882
5870 5869 5868 5867 5865 5864 5863 5862 5861 5860 5859 5858 5857 5856 5854 5853 5853 5852 5851 5849 5848 5847 5847 5846 5846 5846 5846 5846 5846 5847 5847 5848 5849 5850 5852 5854 5858 5861 5864 5867 5870 5874 5876
5865 5865 5864 5862 5861 5860 5859 5857 5856 5855 5853 5852 5851 5849 5848 5847 5846 5845 5843 5842 5841 5840 5840 5839 5839 5839 5839 5839 5839 5840 5840 5841 5842 5843 5845 5847 5850 5853 5857 5860 5863 5867 5870
5861 5860 5859 5858 5856 5855 5854 5852 5850 5849 5847 5846 5844 5842 5841 5839 5838 5837 5836 5834 5833 5832 5832 5831 5831 5831 5831 5831 5832 5832 5833 5834 5835 5836 5837 5839 5842 5845 5849 5853 5856 5860 5864
5856 5855 5853 5852 5851 5850 5848 5846 5844 5842 5840 5839 5837 5835 5833 5832 5830 5829 5827 5826 5825 5824 5823 5823 5822 5822 5822 5823 5824 5825 5825 5826 5827 5828 5830 5831 5834 5837 5841 5845 5849 5852 5856
5851 5850 5848 5847 5845 5844 5842 5840 5838 5836 5834 5832 5830 5828 5826 5824 5822 5821 5819 5817 5816 5815 5814 5814 5814 5813 5814 5814 5815 5816 5817 5818 5819 5820 5822 5823 5826 5828 5832 5836 5840 5845 5848
5848 5846 5844 5842 5840 5838 5836 5834 5832 5829 5827 5825 5823 5820 5818 5817 5815 5813 5811 5809 5808 5807 5805 5805 5804 5804 5804 5804 5806 5807 5808 5809 5810 5811 5813 5815 5817 5820 5823 5827 5832 5836 5840
5844 5842 5840 5838 5836 5833 5831 5828 5826 5823 5821 5818 5816 5813 5811 5809 5807 5805 5803 5801 5800 5798 5797 5796 5795 5795 5795 5795 5796 5797 5799 5800 5801 5802 5803 5806 5808 5811 5815 5819 5823 5827 5832
5841 5839 5837 5834 5832 5829 5826 5823 5820 5817 5814 5812 5809 5806 5804 5802 5800 5798 5796 5794 5792 5790 5789 5787 5786 5786 5786 5785 5786 5787 5788 5790 5792 5793 5794 5797 5799 5802 5806 5809 5814 5818 5823
5839 5837 5834 5831 5829 5825 5822 5819 5815 5812 5808 5805 5802 5799 5797 5795 5793 5791 5788 5786 5784 5782 5780 5779 5778 5777 5777 5776 5776 5777 5778 5780 5782 5784 5786 5788 5790 5794 5797 5801 5805 5809 5814
5837 5834 5832 5829 5825 5821 5817 5813 5809 5806 5802 5799 5795 5792 5790 5787 5785 5783 5781 5778 5776 5774 5772 5770 5769 5768 5768 5767 5767 5767 5769 5770 5771 5774 5776 5778 5781 5785 5788 5792 5796 5800 5805
5835 5832 5828 5824 5820 5816 5812 5808 5804 5800 5796 5793 5789 5786 5783 5780 5777 5775 5772 5770 5767 5765 5763 5761 5760 5759 5758 5758 5758 5758 5759 5760 5762 5764 5766 5768 5772 5776 5779 5783 5787 5791 5796